Miscellaneous Local Product
Issued by NWS Hastings, NE

Home | Current Version | Previous Version | Graphics & Text | Print | Product List | Glossary On
Versions: 1 2 3 4 5 6 7 8 9 10 11 12 13 14 15 16 17 18 19 20 21 22 23 24 25 26 27 28 29 30 31 32 33 34 35 36 37 38 39 40 41 42 43 44 45 46 47 48 49 50
000
AXUS43 KGID 221002
MISGRI

GID CWA HOURLY WEATHER ROUNDUP
NATIONAL WEATHER SERVICE HASTINGS NE
500 AM CDT FRI AUG 22 2014

NOTE: "FAIR" INDICATES FEW OR NO CLOUDS BELOW 12,000 FEET WITH NO
SIGNIFICANT WEATHER AND/OR OBSTRUCTIONS TO VISIBILITY.

...SOUTH CENTRAL NEBRASKA...

CITY           SKY/WX    TMP DP  RH WIND       PRES   REMARKS
GRAND ISLAND   CLEAR     69  67  93 E7        29.92R
HASTINGS       CLEAR     69  65  86 NE6       29.91R
KEARNEY        CLEAR     70  66  88 NW7       29.92R
ORD            CLEAR     66  65  96 CALM      29.92S
YORK           PTCLDY    68 N/A N/A N5        29.92S
AURORA         CLEAR     70  70 100 NE5       29.92S
LEXINGTON      CLEAR     66  65  96 NW5       29.94R
HOLDREGE       CLEAR     67  65  93 N6        29.92R
HEBRON         CLEAR     70  66  87 NE8       29.89R

...NEBRASKA PANHANDLE...

CITY           SKY/WX    TMP DP  RH WIND       PRES   REMARKS
CHADRON        MOCLDY    59  51  75 W6        30.03R
ALLIANCE       CLOUDY    66  50  56 NW7       30.03S
SCOTTSBLUFF    CLOUDY    65  53  65 N7        30.07R
SIDNEY         CLOUDY    64  60  87 S6        30.11R

...WESTERN AND NORTH CENTRAL NEBRASKA...

CITY           SKY/WX    TMP DP  RH WIND       PRES   REMARKS
VALENTINE      PTCLDY    66  61  84 SE3       29.96S
AINSWORTH      CLEAR     64  61  91 SE3       29.96S
ONEILL         CLEAR     66  65  94 E6        29.95S
BROKEN BOW     CLEAR     66  64  93 N5        29.95R
IMPERIAL       MOCLDY    68  64  87 N3        29.99F
NORTH PLATTE   PTCLDY    62  60  93 NW3       29.96F
MCCOOK         CLEAR     65  63  93 N3        29.94S

...EASTERN NEBRASKA...

CITY           SKY/WX    TMP DP  RH WIND       PRES   REMARKS
NORFOLK        CLEAR     69  67  93 CALM      29.91R
SO SIOUX CITY  MOCLDY    73  71  93 NW6       29.89R
TEKAMAH        CLOUDY    73  71  93 SE3       29.88S
COLUMBUS       CLEAR     46 N/A N/A CALM      29.91S
ALBION         CLEAR     69  66  92 CALM      29.93S FOG
OMAHA EPPLEY   MOCLDY    74  69  85 SE5       29.89S
OFFUTT AFB     CLOUDY    73  73 100 CALM      29.88F
MILLARD        CLOUDY    74  72  92 CALM      29.88F
LINCOLN        MOCLDY    77  71  82 CALM      29.90F
NEBRASKA CITY  CLOUDY    76  76 100 W5        29.88F
BEATRICE       CLOUDY    74  71  89 E3        29.89F
FALLS CITY     CLOUDY    79  72  79 S5        29.88F

...NORTHERN KANSAS...

CITY           SKY/WX    TMP DP  RH WIND       PRES   REMARKS
GOODLAND       PTCLDY    63  59  87 N5        30.00S
HILL CITY      CLEAR     69  66  90 CALM      29.88F
NORTON         SUNNY     68  64  88 CALM      29.89S
PHILLIPSBURG   CLEAR     72  66  83 NW5       29.87R
SMITH CENTER   CLEAR     70  66  88 NE7       29.88R
HAYS           PTCLDY    79  64  61 S12       29.88S
RUSSELL        MOCLDY    79  66  64 S9        29.86S
CONCORDIA      CLEAR     78  72  81 S15       29.85F
SALINA         MOCLDY    82  70  66 S10       29.86F
TOPEKA         MOCLDY    80  73  79 SE5       29.90S



USA.gov is the U.S. government's official web portal to all federal, state and local government web resources and services.